Location: *
(51.4305°N, 6.8870°E)
Time: 06:26:50
(UTC+00:00)

Daily predictions for brighter satellites

Satellite Brightness Start Highest point End
(mag) Time Altitude Azimuth Time Altitude Azimuth Time Altitude Azimuth
Aureole 1 Rocket 4.4 18:43:32 10° S 18:50:18 42° ESE 18:55:41 10° NE
STARLINK-1240 3.8 18:46:48 10° WNW 18:50:57 74° N 18:55:07 10° E
Cosmos 1943 Rocket 4.1 18:46:20 10° NW 18:51:10 32° WSW 18:56:02 10° SSW
Cosmos 1825 Rocket 3.5 18:47:04 10° N 18:51:29 80° ENE 18:55:51 10° SSE
FREGAT/IRIS 2.3 18:49:13 10° SSE 18:51:56 70° ENE 18:54:39 10° N
Meteor 1-16 Rocket 4.2 18:46:40 10° S 18:51:59 60° E 18:57:32 10° NNE
SJ-6B 3.1 18:48:09 10° SSE 18:52:12 57° ENE 18:56:17 10° N
Cosmos 921 Rocket 3.6 18:48:35 10° N 18:52:32 39° ENE 18:56:28 10° SE
STARLINK-1216 3.7 18:51:48 10° WNW 18:55:57 75° N 19:00:06 10° E
H-2A R/B 2.1 18:51:03 10° SSE 18:56:14 88° ENE 19:01:18 10° NNW
Cosmos 1461 3.1 18:51:50 10° NW 18:56:22 82° NE 19:01:02 10° SE
Resurs 01 Rocket 2.6 18:55:07 10° ESE 18:58:55 29° ENE 19:02:45 10° N
ATLAS 2AS CENTAUR R/B 3.1 18:52:12 10° NW 18:59:54 78° SW 19:06:57 10° SE
STARLINK-1237 3.7 18:56:45 10° WNW 19:00:55 77° NNE 19:05:04 10° E
SeaSat 1 2.5 18:55:57 10° NNE 19:00:56 88° NW 19:05:52 10° SSW
Cosmos 2228 3.1 18:57:16 10° S 19:01:29 57° E 19:05:47 10° NNE
Nadezhda 1 Rocket 4.2 18:55:34 10° SSE 19:01:44 54° E 19:07:52 10° NNE
Cosmos 2154 Rocket 4.1 18:56:52 10° N 19:03:13 66° ENE 19:09:31 10° SSE
Cosmos 2251 Rocket 4.1 18:58:19 10° SW 19:03:39 66° WNW 19:09:03 10° NNE
Cosmos 1300 4.2 19:01:23 10° SE 19:04:03 18° E 19:06:44 10° NE
Cosmos 2369 Rocket 3.9 18:59:36 10° NW 19:04:39 33° WSW 19:09:37 10° SSW
CZ-2C R/B 2.9 19:00:11 10° SSE 19:05:02 85° WSW 19:09:49 10° NNW
Cosmos 1758 Rocket 4.0 19:01:28 10° NNW 19:05:46 64° W 19:10:01 10° S
STARLINK-1202 3.7 19:01:46 10° WNW 19:05:55 79° N 19:10:01 10° E
USA 186 2.0 19:05:03 10° S 19:08:19 71° WSW 19:11:27 10° NNW
Ariane Rocket 3.6 19:06:21 10° S 19:11:22 62° WSW 19:16:24 10° NNW
Cosmos 1140 Rocket 3.9 19:07:37 10° S 19:12:23 38° ESE 19:17:09 10° NE
RESURS DK-1 4.4 19:09:51 10° N 19:12:40 17° NE 19:15:28 10° E
SL-4 R/B 1.7 19:10:05 10° SW 19:13:23 51° SSE 19:16:45 10° E
Cosmos 1953 Rocket 3.6 19:09:23 10° N 19:13:53 89° W 19:18:23 10° S
Cosmos 1703 3.5 19:10:50 10° NNW 19:14:48 77° W 19:18:46 10° S
Cosmos 2058 4.4 19:12:20 10° NNE 19:15:26 20° ENE 19:17:52 13° ESE
STARLINK-1234 3.2 19:12:48 10° WNW 19:15:42 51° SSW 19:18:03 14° SE
STARLINK-1246 3.6 19:11:43 10° WNW 19:15:52 83° NNE 19:19:33 13° ESE
STARLINK-1209 3.3 19:13:25 10° WNW 19:16:18 48° SSW 19:18:37 14° SE
Cosmos 1606 Rocket 3.6 19:12:24 10° S 19:16:51 84° E 19:21:21 10° NNE
Cosmos 1340 Rocket 3.1 19:14:18 10° S 19:18:10 45° E 19:22:02 10° NNE
Cosmos 1328 4.0 19:14:29 10° NNW 19:18:29 74° W 19:22:28 10° S
STARLINK-1203 3.7 19:15:36 10° WNW 19:19:50 87° NNE 19:23:23 14° ESE
STARLINK-1233 3.1 19:16:44 10° WNW 19:19:51 61° SSW 19:22:13 16° SE
STARLINK-1212 3.1 19:17:11 10° WNW 19:20:18 61° SSW 19:22:37 16° SE
STARLINK-1105 3.1 19:17:37 10° WNW 19:20:44 60° SSW 19:23:04 16° SE
STARLINK-1224 3.6 19:16:43 10° WNW 19:20:52 85° NNE 19:24:21 14° ESE
STARLINK-1206 3.1 19:18:08 10° WNW 19:21:12 60° SSW 19:23:29 16° SE
STARLINK-1247 3.1 19:18:34 10° WNW 19:21:39 59° SSW 19:23:55 17° SE
STARLINK-1227 3.1 19:18:59 10° WNW 19:22:05 59° SSW 19:24:22 17° SE
Cosmos 614 Rocket 3.9 19:17:14 10° SSW 19:22:26 71° ESE 19:27:37 10° NNE
Cosmos 1190 Rocket 4.1 19:17:22 10° S 19:22:30 53° ESE 19:27:38 10° NNE
STARLINK-1218 3.1 19:19:28 10° WNW 19:22:33 59° SSW 19:24:47 17° SE
STARLINK-1226 3.1 19:19:54 10° WNW 19:22:59 58° SSW 19:25:13 17° SE
Spot 2 Rocket 4.5 19:19:28 13° ESE 19:23:22 31° ENE 19:27:50 10° N
STARLINK-1254 3.2 19:20:20 10° WNW 19:23:26 58° SSW 19:25:40 17° SE
STARLINK-1215 3.2 19:20:50 10° WNW 19:23:55 58° SSW 19:26:06 17° SE
ERBS 2.7 19:21:00 10° WNW 19:24:21 56° NNE 19:26:51 16° E
STARLINK-1231 3.2 19:21:16 10° WNW 19:24:21 57° SSW 19:26:31 17° SE
Cosmos 1908 3.2 19:20:53 10° S 19:24:45 83° E 19:28:41 10° NNE
STARLINK-1232 3.2 19:22:11 10° WNW 19:25:15 57° SSW 19:27:24 18° SE
STARLINK-1217 3.2 19:22:37 10° WNW 19:25:41 56° SSW 19:27:49 18° SE
STARLINK-1225 3.6 19:21:42 10° WNW 19:25:52 87° NNE 19:29:09 16° ESE
STARLINK-1208 3.2 19:23:04 10° WNW 19:26:09 56° SSW 19:28:17 18° SE
STARLINK-1229 3.2 19:23:32 10° WNW 19:26:36 55° SSW 19:28:41 18° SE
STARLINK-1271 3.2 19:23:58 10° WNW 19:27:03 55° SSW 19:29:07 18° SE
STARLINK-1270 3.2 19:24:26 10° WNW 19:27:30 55° SSW 19:29:33 19° SE
STARLINK-1154 3.2 19:24:52 10° WNW 19:27:57 54° SSW 19:29:59 19° SE
STARLINK-1197 3.2 19:25:48 10° WNW 19:28:52 54° SSW 19:30:52 19° SE
STARLINK-1189 3.2 19:26:14 10° WNW 19:29:18 53° SSW 19:31:17 19° SE
STARLINK-1198 3.3 19:26:42 10° WNW 19:29:46 53° SSW 19:31:44 19° SE
STARLINK-1188 3.3 19:27:07 10° WNW 19:30:11 53° SSW 19:32:08 19° SE
Cosmos 1726 3.5 19:26:56 10° SSW 19:30:31 43° WNW 19:34:07 10° N
STARLINK-1230 3.6 19:26:40 10° WNW 19:30:51 90° E 19:33:55 18° ESE
STARLINK-1235 3.6 19:27:50 10° WNW 19:30:51 44° SSW 19:32:51 18° SE
SL-24 R/B 3.8 19:27:12 10° NNE 19:31:17 61° E 19:35:00 10° S
STARLINK-1187 3.4 19:28:13 10° WNW 19:31:18 48° SSW 19:33:16 19° SE
STARLINK-67 4.3 19:29:43 10° W 19:31:49 22° SW 19:33:19 14° SSE
STARLINK-1199 3.3 19:29:05 10° WNW 19:32:09 52° SSW 19:34:04 20° SE
DMSP B5D2-2 4.2 19:27:13 10° NNE 19:32:19 50° E 19:37:23 10° S
STARLINK-1191 3.3 19:29:32 10° WNW 19:32:36 51° SSW 19:34:30 20° SE
STARLINK-1210 3.3 19:29:58 10° WNW 19:33:03 51° SSW 19:34:56 20° SE
Cosmos 1943 3.8 19:27:38 10° SW 19:33:16 63° NW 19:38:57 10° NNE
STARLINK-1221 3.3 19:30:27 10° WNW 19:33:32 51° SSW 19:35:23 21° SE
STARLINK-1219 3.4 19:30:53 10° WNW 19:33:58 50° SSW 19:35:49 21° SE
STARLINK-1222 3.4 19:31:20 10° WNW 19:34:25 50° SSW 19:36:15 21° SE
STARLINK-1211 3.4 19:31:49 10° WNW 19:34:53 50° SSW 19:36:42 21° SE
STARLINK-1214 3.4 19:32:15 10° WNW 19:35:18 49° SSW 19:37:06 21° SE
Abrixas rocket 3.1 19:32:44 10° W 19:35:25 31° SSW 19:36:49 20° SSE
STARLINK-1245 3.4 19:32:44 10° WNW 19:35:46 49° SSW 19:37:32 21° SE
STARLINK-1243 3.6 19:31:39 10° WNW 19:35:48 87° SSW 19:38:42 19° ESE
STARLINK-1238 3.4 19:33:09 10° WNW 19:36:13 49° SSW 19:37:59 21° SE
BREEZE-M DEB (TANK) 4.5 19:30:53 10° W 19:36:42 38° SW 19:38:39 17° SSE
STARLINK-1205 3.4 19:34:06 10° WNW 19:37:08 48° SSW 19:38:51 22° SE
STARLINK-1204 3.4 19:34:33 10° WNW 19:37:35 47° SSW 19:39:16 22° SE
STARLINK-29 3.7 19:35:16 10° SSW 19:38:09 31° SSE 19:39:26 23° ESE
STARLINK-1236 3.6 19:36:37 10° WNW 19:40:47 84° SSW 19:43:28 21° ESE
MetOp-A 4.2 19:35:59 10° SSE 19:41:20 82° WSW 19:46:45 10° NNW
CZ-2C R/B 2.7 19:36:32 10° NNE 19:41:36 51° E 19:46:39 10° S
STARLINK-60 3.0 19:39:46 10° SW 19:43:00 58° SSE 19:45:10 19° E
Cosmos 1697 Rocket 3.9 19:39:49 10° NNW 19:44:45 29° NE 19:48:22 16° E
SPOT 5 4.3 19:43:20 15° E 19:45:03 19° ENE 19:48:02 10° NNE
Terra 3.6 19:46:43 14° E 19:48:43 18° NE 19:51:52 10° NNE
Cosmos 407 Rocket 3.5 19:43:56 10° SSW 19:49:05 86° WNW 19:54:16 10° NNE
ERS-1 Rocket 4.1 19:47:10 19° ESE 19:49:41 28° ENE 19:53:54 10° N
ARGOS 4.3 19:44:53 10° S 19:49:59 43° W 19:55:07 10° NNW
STARLINK-1269 3.6 19:46:35 10° WNW 19:50:44 78° SSW 19:53:02 25° ESE
Cosmos 676 Rocket 4.1 19:46:19 10° S 19:51:29 56° ESE 19:56:37 10° NNE
Iridium 2 4.2 19:50:40 24° SE 19:52:25 38° E 19:56:00 10° NNE
Cosmos 192 4.4 19:50:19 10° NNW 19:55:16 63° ENE 19:58:14 24° SE
STARLINK-1200 3.6 19:51:33 10° WNW 19:55:42 75° SSW 19:57:48 28° ESE
CZ-2C R/B 3.9 19:52:59 10° NNE 19:57:44 79° WNW 20:02:21 10° SSW
SL-24 R/B - RUBIN 2 4.3 19:53:33 10° SW 19:59:18 87° SE 20:05:47 10° NE
SPOT 3 Rocket 4.2 19:55:08 10° S 20:00:14 54° W 20:05:21 10° NNW
STARLINK-1192 3.6 19:56:33 10° WNW 20:00:41 72° SSW 20:02:36 30° SE
Resurs 1-3 4.2 19:58:22 10° S 20:02:41 57° W 20:07:02 10° NNW
SL-16 R/B 4.4 20:00:30 10° N 20:03:34 15° NNE 20:06:39 10° ENE
COSMOS 2455 3.3 19:58:55 10° NW 20:04:49 57° WSW 20:09:32 16° SSE
STARLINK-1201 4.0 20:02:23 10° W 20:05:24 34° SSW 20:06:17 29° S
STARLINK-1244 3.7 20:01:32 10° WNW 20:05:39 68° SSW 20:07:23 33° SE
Cosmos 1656 3.9 20:02:33 10° NNW 20:08:11 57° NE 20:11:09 27° ESE
STARLINK-1138 3.7 20:06:31 10° WNW 20:10:38 65° SSW 20:12:10 36° SE
MOS 1 Rocket 3.7 20:05:30 10° NNE 20:10:55 87° WNW 20:16:23 10° SSW
Cosmos 2322 Rocket 4.5 20:08:19 10° N 20:11:17 14° NNE 20:14:13 10° NE
Cosmos 1455 3.7 20:13:23 21° ENE 20:13:23 21° ENE 20:15:42 10° NE
Cosmos 1954 Rocket 3.9 20:08:33 10° SSW 20:13:47 80° ESE 20:19:01 10° NNE
FALCON 9 DEB 3.3 20:10:28 10° SW 20:13:52 51° SSE 20:14:16 48° SE
Cosmos 1980 Rocket 3.5 20:09:37 10° NNW 20:14:26 28° NE 20:17:17 19° E
IGS 5A 3.7 20:13:40 35° SE 20:15:02 51° ENE 20:19:05 10° N
STARLINK-1143 3.7 20:11:29 10° WNW 20:15:35 62° SSW 20:16:57 38° SE
Cosmos 1892 2.8 20:12:10 10° N 20:16:02 58° ENE 20:17:06 41° SE
ATLAS CENTAUR R/B 2.4 20:14:36 10° NNW 20:18:13 32° NE 20:19:27 25° ENE
STARLINK-52 3.2 20:15:23 10° SW 20:18:09 48° S 20:18:09 48° S
Cosmos 2058 Rocket 4.2 20:14:52 10° SSW 20:19:14 47° WNW 20:23:36 10° N
Cosmos 1741 Rocket 4.5 20:18:19 29° SSE 20:20:17 40° ESE 20:25:14 10° NE
STARLINK-1241 3.8 20:16:31 10° WNW 20:20:36 58° SSW 20:21:46 41° SSE
BREEZE M DEB (TANK) 3.6 20:18:21 10° SW 20:22:00 44° SE 20:32:28 10° ENE
Cosmos 2341 Rocket 4.5 20:16:15 10° NNW 20:22:34 63° W 20:28:51 10° S
Cosmos 1825 3.2 20:19:55 10° N 20:23:18 29° ENE 20:23:21 29° ENE
SPOT 1/Viking Rocket 3.7 20:21:22 32° SE 20:23:43 62° ENE 20:28:53 10° N
CARTOSAT-1 4.2 20:22:54 34° E 20:23:51 39° ENE 20:27:53 10° N
CZ-4C R/B 3.4 20:17:52 10° NW 20:24:22 50° NNE 20:29:17 22° E
ATLAS 5 CENTAUR R/B 1.8 20:20:44 10° SW 20:24:59 72° NW 20:29:54 10° NE
STARLINK-1239 3.9 20:21:28 10° WNW 20:25:32 55° SSW 20:26:31 43° SSE
Cosmos 2208 Rocket 4.4 20:21:13 10° NNW 20:26:18 49° ENE 20:28:08 34° ESE
Cosmos 1763 Rocket 3.4 20:23:38 10° NNW 20:28:52 81° ENE 20:30:58 37° SSE
STARLINK-1240 3.9 20:26:28 10° WNW 20:30:30 52° SSW 20:31:18 44° SSE
Okean 3 Rocket 4.0 20:28:39 10° N 20:32:55 45° ENE 20:33:36 41° E
Cosmos 1766 Rocket 4.1 20:30:31 10° N 20:34:46 40° ENE 20:35:19 38° E
Resurs 01 Rocket 2.8 20:31:53 14° SSW 20:35:18 39° W 20:39:28 10° NNW
Cosmos 2218 Rocket 4.1 20:29:08 10° NNW 20:35:21 78° W 20:39:41 21° S
Cosmos 540 Rocket 3.8 20:30:19 10° NNW 20:35:23 50° ENE 20:36:54 38° ESE
STARLINK-1216 4.0 20:31:27 10° WNW 20:35:28 49° SSW 20:36:05 45° S
Meteor 2-12 Rocket 4.4 20:31:08 10° N 20:37:17 86° E 20:40:31 30° SSE
Cosmos 1300 3.8 20:35:46 10° SSW 20:39:24 43° WNW 20:43:06 10° N
Cosmos 1174 4.5 20:35:51 10° NW 20:39:52 57° SW 20:41:25 38° S
STARLINK-1237 4.0 20:36:25 10° WNW 20:40:24 46° SSW 20:40:51 44° S
Iridium 4 Rocket 2.9 20:36:20 10° N 20:40:34 82° W 20:41:54 42° S
Cosmos 1814 Rocket 4.3 20:35:47 10° NNW 20:41:05 55° ENE 20:42:40 40° ESE
USA 234 3.4 20:36:00 10° ENE 20:42:16 46° SE 20:48:30 10° SSW
Landsat 7 3.8 20:42:04 39° S 20:43:50 84° WSW 20:48:37 10° NNW
Cosmos 2278 4.2 20:38:24 10° NNW 20:43:51 46° NE 20:45:43 34° E
SAR-Lupe-2 3.9 20:41:16 10° N 20:44:50 65° WNW 20:46:11 34° SW
STARLINK-1202 4.1 20:41:27 10° WNW 20:45:24 44° SSW 20:45:40 43° SSW
Cosmos 2082 Rocket 3.8 20:49:07 18° ENE 20:49:07 18° ENE 20:51:18 10° NE
Cosmos 1812 Rocket 3.6 20:46:08 28° SSW 20:48:20 73° W 20:52:42 10° N
RESURS DK-1 2.2 20:47:10 10° NNW 20:51:21 85° ENE 20:51:45 72° SE
Cosmos 2058 3.7 20:48:39 10° NNW 20:52:37 48° W 20:54:04 32° SSW
SL-4 R/B 1.7 20:49:26 10° W 20:52:28 68° W 20:52:28 68° W
Cosmos 2181 Rocket 4.3 20:48:12 10° SSW 20:54:24 64° WNW 21:00:33 10° N
STARLINK-1246 4.4 20:51:25 10° WNW 20:55:12 39° SW 20:55:12 39° SW
Cosmos 1833 Rocket 3.4 20:56:29 34° E 20:56:29 34° E 21:00:47 10° NE
USA 32 3.9 20:52:03 10° N 20:57:19 85° E 20:58:49 49° SSE
ASTEX 1 4.1 20:57:33 36° E 20:57:48 36° ENE 21:02:20 10° N
Cosmos 2151 2.7 20:54:10 10° N 20:58:23 85° ENE 20:58:42 76° SSE
Meteor 2-10 Rocket 3.5 20:58:37 52° SE 20:59:39 63° E 21:05:03 10° NNE
ERBS 3.9 20:57:31 10° WNW 20:59:49 28° WSW 20:59:49 28° WSW
Spot 2 Rocket 4.3 20:59:39 26° SSW 21:02:11 47° W 21:07:08 10° NNW
BREEZE-M DEB (TANK) 4.0 21:01:27 10° W 21:02:11 16° W 21:02:11 16° W
Cosmos 1850 Rocket 3.8 21:02:16 31° SSW 21:04:49 88° ESE 21:10:02 10° NNE
Cosmos 841 Rocket 3.4 21:01:49 10° NNW 21:07:09 88° WSW 21:08:12 59° SSE
COSMOS 2406 3.1 21:08:16 43° S 21:10:09 71° ESE 21:15:52 10° NNE
Cosmos 1408 3.1 21:08:22 10° NNW 21:11:46 56° W 21:11:46 56° W
Cosmos 1408 Rocket 3.8 21:10:42 10° N 21:14:53 59° ENE 21:14:53 59° ENE
Nadezhda 3 Rocket 3.9 21:15:55 49° SSE 21:17:40 73° E 21:23:56 10° NNE
CZ-2C R/B 4.4 21:17:17 10° N 21:21:41 29° WNW 21:26:05 10° WSW
SPOT 5 2.7 21:22:33 64° WSW 21:22:44 65° WSW 21:27:04 10° NNW
Terra 1.7 21:25:36 77° SSW 21:25:53 83° WSW 21:30:41 10° NNW
Cosmos 2369 3.6 21:20:46 10° NNW 21:26:25 75° WSW 21:27:19 62° S
Cosmos 1570 Rocket 4.5 21:22:13 10° NNW 21:27:26 53° WSW 21:28:26 46° SW
ERS-1 Rocket 3.5 21:27:10 44° SW 21:28:13 52° W 21:33:09 10° NNW
Cosmos 1697 Rocket 2.7 21:23:35 10° NNW 21:29:15 70° WSW 21:30:07 60° SSW
Cosmos 2221 4.1 21:34:15 25° NE 21:34:15 25° NE 21:36:31 10° NNE
Cosmos-2242 3.4 21:33:27 59° W 21:33:39 59° WNW 21:37:59 10° N
Cosmos 1821 Rocket 4.3 21:37:51 10° NNW 21:44:07 62° W 21:45:57 45° SSW
Cosmos 1934 Rocket 3.8 21:40:49 10° N 21:47:08 89° W 21:48:02 67° S
Cosmos 1455 3.6 21:48:16 35° WNW 21:48:16 35° WNW 21:51:42 10° N
SL-16 R/B 3.0 21:44:00 10° NNW 21:49:21 40° NE 21:50:12 38° ENE
Cosmos 2084 4.2 21:45:25 10° NW 21:49:17 52° N 21:49:17 52° N
Cosmos 2360 Rocket 3.8 21:46:32 10° NNW 21:51:07 25° NE 21:53:00 21° ENE
Cosmos 2322 Rocket 3.0 21:51:44 10° NNW 21:57:02 39° NE 21:57:48 37° ENE
ATLAS CENTAUR R/B 3.0 21:53:32 10° NW 21:55:38 27° WNW 21:55:38 27° WNW
Mayak -0.1 21:53:47 10° NNE 21:56:22 37° NNE 21:56:22 37° NNE
Cosmos 1825 4.1 21:55:32 10° NNW 21:58:10 25° WNW 21:58:10 25° WNW
Cosmos 1980 Rocket 2.1 21:53:22 10° NNW 21:59:00 74° WSW 21:59:03 74° WSW
Meteor 2-3 Rocket 3.9 21:57:04 10° NNW 22:02:45 64° W 22:03:11 62° WSW
Cosmos 1605 Rocket 3.8 21:57:22 10° N 22:03:33 83° E 22:03:58 77° SE
Spot 4 4.2 22:07:05 59° NNE 22:07:05 59° NNE 22:11:10 10° N
Thor Agena Rocket 3.9 22:03:51 10° NNE 22:07:59 56° NE 22:07:59 56° NE
Cosmos 2333 Rocket 4.4 22:05:27 10° NNW 22:09:18 18° NNE 22:12:45 11° ENE
ATLAS 5 CENTAUR R/B 3.9 22:06:37 10° WNW 22:10:28 26° NNW 22:14:50 10° NE
CZ-4C R/B 2.9 22:06:22 10° NW 22:13:22 66° SW 22:14:29 60° SSW
ALOS 2 3.9 22:16:03 35° NNE 22:16:03 35° NNE 22:19:05 10° N
Cosmos 1339 Rocket 4.4 22:18:09 80° SE 22:18:25 82° E 22:24:52 10° NNE
Meteor 2-2 Rocket 4.4 22:24:52 66° NE 22:24:52 66° NE 22:29:52 10° NNE
USA 234 3.2 22:19:03 10° ENE 22:25:36 80° NNW 22:32:09 10° WSW
Cosmos 2082 Rocket 2.2 22:30:55 76° NNW 22:30:55 76° NNW 22:36:21 10° NNE
Cosmos 1833 Rocket 3.4 22:38:06 40° W 22:39:29 49° NW 22:44:58 10° NNE
Cosmos 2344 4.4 22:35:54 10° NW 22:45:15 66° SW 22:48:33 50° S
Cosmos 2219 Rocket 4.0 22:44:20 10° NNW 22:48:55 25° NE 22:50:59 20° ENE
Cosmos 1607 3.9 22:55:17 77° NE 22:55:17 77° NE 23:01:04 10° NE
Cosmos 2061 Rocket 4.1 22:55:18 10° N 23:01:24 64° ENE 23:01:24 64° ENE
Terra 4.3 23:04:29 12° W 23:04:29 12° W 23:06:27 10° WNW
Cosmos 968 Rocket 4.0 23:06:04 56° N 23:06:04 56° N 23:10:19 10° NNE
Cosmos 2221 4.4 23:11:04 27° NW 23:11:04 27° NW 23:14:01 10° N
Cosmos 1459 Rocket 4.0 23:06:49 10° NNW 23:12:56 79° WNW 23:12:56 79° WNW
COSMOS 2428 4.1 23:09:13 10° NNW 23:14:20 32° NE 23:15:49 28° ENE
SL-16 R/B 4.4 23:17:35 16° E 23:20:36 23° NE 23:25:15 10° N
Cosmos 2233 Rocket 4.4 23:17:24 10° N 23:23:32 51° ENE 23:23:39 51° ENE
Cosmos 1727 Rocket 4.3 23:24:37 56° W 23:24:48 56° WNW 23:31:03 10° N
Cosmos 2016 Rocket 4.0 23:25:32 10° N 23:31:34 79° NW 23:31:34 79° NW
Cosmos 1725 Rocket 4.0 23:26:01 10° N 23:32:04 80° NNE 23:32:04 80° NNE
Mayak 1.3 23:30:36 10° NNW 23:32:56 15° WNW 23:32:56 15° WNW
SL-16 R/B 3.2 23:28:10 10° NW 23:32:03 37° WNW 23:32:03 37° WNW
Cosmos 2360 Rocket 2.6 23:30:12 10° NNW 23:34:45 60° NNW 23:34:45 60° NNW
Cosmos 1802 Rocket 4.1 23:29:50 10° NNW 23:35:30 65° WNW 23:35:30 65° WNW
Cosmos 2100 Rocket 4.5 23:33:35 10° NNW 23:39:10 50° WNW 23:39:10 50° WNW
Cosmos 2322 Rocket 3.2 23:35:50 10° NW 23:39:36 37° WNW 23:39:36 37° WNW
Cosmos 1980 Rocket 4.4 23:39:20 10° WNW 23:40:49 13° W 23:40:49 13° W
CZ-2D R/B 4.4 23:40:10 10° NE 23:42:48 13° E 23:43:03 13° E
MOS 1-B Rocket 4.1 23:37:06 10° NNE 23:43:19 89° WNW 23:43:26 87° SW
Cosmos 2123 Rocket 4.0 23:45:08 75° NE 23:45:08 75° NE 23:50:55 10° NNE
SJ 16-02 3.8 23:52:41 15° ENE 23:52:41 15° ENE 23:53:53 10° NE
